Home   Weather   Pahrump   Past weeks
Flag for USA

Past Weather in Pahrump, Nevada, USA — Yesterday and Last 2 Weeks

Now
46 °F

Overcast.


Feels Like: 41 °F
Forecast: 56 / 45 °F
Wind: 13 mph from Southwest

Location: Indian Springs Gunnery Range

Current Time: Mar 21, 2019 at 5:05:51 am

Latest Report: Mar 21, 2019 at 4:32 am


Visibility: 10 mi

Pressure: 29.86 "Hg (27.12 "Hg at 791m altitude)

Humidity: 76%

Dew Point: 39 °F

Location of PahrumpLocation

Past Weather in Pahrump — Graph

°F

Pahrump Temperature Yesterday

Maximum temperature yesterday: 63 °F (at 10:58 am)
Minimum temperature yesterday: 49 °F (at 10:58 pm)
Average temperature yesterday: 56 °F

High & Low Weather Summary for the Past Weeks

 TemperatureHumidityPressure
High72 °F (Mar 18, 3:58 pm)100% (Mar 6, 2:13 am)30.31 "Hg (Mar 6, 2:13 am)
Low34 °F (Mar 11, 6:58 am)11% (Mar 15, 4:58 pm)29.43 "Hg (Mar 12, 5:58 pm)
Average51 °F51%29.87 "Hg
* Reported Mar 6 2:13 am — Mar 21 3:56 am, Pahrump. Weather by CustomWeather, © 2019

Note: Actual official high and low records may vary slightly from our data, if they occured in-between our weather recording intervals... More about our weather records

Advertising

Pahrump Weather History for the Previous 24 Hours

Scroll right to see more
 ConditionsComfort  
Time TempWeatherWind HumidityBarometerVisibility
3:56 am
Thu, Mar 21
45 °FOvercast.15 mph81%29.85 "Hg10 mi
3:41 am45 °FMostly cloudy.14 mph81%29.86 "Hg10 mi
3:11 am46 °FMostly cloudy.14 mph76%29.85 "Hg10 mi
2:56 am46 °FMostly cloudy.15 mph76%29.86 "Hg10 mi
2:38 am46 °FMostly cloudy.16 mph76%29.86 "Hg10 mi
12:58 am49 °FPassing clouds.13 mph66%29.87 "Hg10 mi
12:23 am50 °FPassing clouds.15 mph62%29.86 "Hg10 mi
11:13 pm
Wed, Mar 20
50 °FPassing clouds.13 mph62%29.87 "Hg10 mi
10:58 pm49 °FPassing clouds.15 mph65%29.87 "Hg10 mi
10:16 pm50 °FPassing clouds.10 mph64%29.87 "Hg10 mi
7:58 pm53 °FMostly cloudy.15 mph48%29.86 "Hg10 mi
7:33 pm50 °FPassing clouds.14 mph62%29.87 "Hg10 mi
7:13 pm50 °FPassing clouds.16 mph67%29.87 "Hg10 mi
6:58 pm50 °FPassing clouds.15 mph74%29.87 "Hg10 mi
5:58 pm51 °FPassing clouds.14 mph71%29.88 "Hg10 mi
4:58 pm51 °FPassing clouds.23 mph67%29.89 "Hg10 mi
3:58 pm55 °FBroken clouds.25 mph47%29.88 "Hg10 mi
2:58 pm56 °FScattered clouds.10 mph49%29.89 "Hg10 mi
1:59 pm57 °FPassing clouds.22 mph44%29.89 "Hg10 mi
1:44 pm57 °FLight rain. Passing clouds.25 mph44%29.90 "Hg10 mi
1:11 pm57 °FPassing clouds.22 mph41%29.90 "Hg10 mi
12:59 pm59 °FLight rain. Passing clouds.24 mph39%29.89 "Hg10 mi
12:18 pm61 °FScattered clouds.20 mph34%29.88 "Hg10 mi
12:08 pm61 °FScattered clouds.14 mph29%29.86 "Hg10 mi
11:29 am63 °FPassing clouds.20 mph30%29.84 "Hg10 mi
10:58 am63 °FBroken clouds.21 mph28%29.85 "Hg10 mi
9:58 am63 °FBroken clouds.5 mph28%29.85 "Hg10 mi
8:58 am62 °FPassing clouds.10 mph29%29.84 "Hg10 mi
8:18 am61 °FPassing clouds.13 mph29%29.83 "Hg10 mi
8:00 am61 °FScattered clouds.12 mph29%29.83 "Hg10 mi
6:58 am60 °FOvercast.21 mph28%29.80 "Hg10 mi
5:58 am60 °FPartly cloudy.20 mph27%29.78 "Hg10 mi
Weather by CustomWeather, © 2019

See weather overview